• In Deutschland
  • Länderverzeichnis
  • Für 7 Tage
  • Wassertemperatur
  • Satellitenkarten
  • Wetterkarte
  • Widgets
  • user-avatar
    Anmelden

    Stündliche Wetter Jaú

    Heute, 26 Juni, Montag

    Zeit Temperatur Niederschläge Wind Luftdruck Luftfeuchtigkeit
    00:00 +35°C° 0 mm 3 m/S 749 mmHg 31%
    01:00 +35°C° 0 mm 4 m/S 749 mmHg 31%
    02:00 +35°C° 0 mm 4 m/S 749 mmHg 31%
    03:00 +35°C° 0 mm 4 m/S 749 mmHg 28%
    04:00 +35°C° 0 mm 5 m/S 749 mmHg 28%
    05:00 +35°C° 0 mm 5 m/S 749 mmHg 27%
    06:00 +36°C° 0 mm 5 m/S 749 mmHg 27%
    07:00 +39°C° 0 mm 6 m/S 749 mmHg 24%
    08:00 +41°C° 0 mm 6 m/S 749 mmHg 20%
    09:00 +44°C° 0 mm 6 m/S 750 mmHg 17%
    10:00 +45°C° 0 mm 6 m/S 750 mmHg 16%
    11:00 +45°C° 0 mm 6 m/S 750 mmHg 16%
    12:00 +46°C° 0 mm 6 m/S 750 mmHg 15%
    13:00 +46°C° 0 mm 6 m/S 749 mmHg 16%
    14:00 +46°C° 0 mm 6 m/S 749 mmHg 16%
    15:00 +45°C° 0 mm 6 m/S 749 mmHg 17%
    16:00 +44°C° 0 mm 6 m/S 749 mmHg 20%
    17:00 +42°C° 0 mm 5 m/S 749 mmHg 23%
    18:00 +41°C° 0 mm 5 m/S 749 mmHg 26%
    19:00 +40°C° 0 mm 4 m/S 749 mmHg 27%
    20:00 +38°C° 0 mm 3 m/S 749 mmHg 28%
    21:00 +37°C° 0 mm 3 m/S 749 mmHg 29%
    22:00 +37°C° 0 mm 3 m/S 749 mmHg 27%
    23:00 +37°C° 0 mm 3 m/S 749 mmHg 25%

    Morgen, 27 Juni, Dienstag

    Zeit Temperatur Niederschläge Wind Luftdruck Luftfeuchtigkeit
    00:00 +37°C° 0 mm 3 m/S 749 mmHg 23%
    01:00 +37°C° 0 mm 4 m/S 749 mmHg 24%
    02:00 +37°C° 0 mm 5 m/S 749 mmHg 25%
    03:00 +37°C° 0 mm 5 m/S 749 mmHg 26%
    04:00 +37°C° 0 mm 5 m/S 749 mmHg 26%
    05:00 +37°C° 0 mm 5 m/S 749 mmHg 27%
    06:00 +37°C° 0 mm 5 m/S 749 mmHg 27%
    07:00 +40°C° 0 mm 6 m/S 749 mmHg 22%
    08:00 +44°C° 0 mm 6 m/S 750 mmHg 17%
    09:00 +46°C° 0 mm 6 m/S 750 mmHg 12%
    10:00 +47°C° 0 mm 6 m/S 749 mmHg 11%
    11:00 +48°C° 0 mm 6 m/S 749 mmHg 11%
    12:00 +48°C° 0 mm 6 m/S 749 mmHg 10%
    13:00 +48°C° 0 mm 6 m/S 749 mmHg 12%
    14:00 +48°C° 0 mm 6 m/S 748 mmHg 13%
    15:00 +47°C° 0 mm 6 m/S 748 mmHg 14%
    16:00 +46°C° 0 mm 5 m/S 748 mmHg 17%
    17:00 +45°C° 0 mm 5 m/S 748 mmHg 20%
    18:00 +42°C° 0 mm 4 m/S 748 mmHg 23%
    19:00 +40°C° 0 mm 3 m/S 748 mmHg 25%
    20:00 +39°C° 0 mm 3 m/S 748 mmHg 28%
    21:00 +38°C° 0 mm 2 m/S 748 mmHg 30%
    22:00 +38°C° 0 mm 2 m/S 748 mmHg 29%
    23:00 +38°C° 0 mm 3 m/S 748 mmHg 27%

    übermorgen, 28 Juni, Mittwoch

    Zeit Temperatur Niederschläge Wind Luftdruck Luftfeuchtigkeit
    00:00 +38°C° 0 mm 3 m/S 748 mmHg 26%
    01:00 +38°C° 0 mm 4 m/S 748 mmHg 25%
    02:00 +38°C° 0 mm 4 m/S 747 mmHg 25%
    03:00 +39°C° 0 mm 5 m/S 747 mmHg 25%
    04:00 +38°C° 0 mm 4 m/S 747 mmHg 25%
    05:00 +38°C° 0 mm 4 m/S 747 mmHg 24%
    06:00 +38°C° 0 mm 4 m/S 748 mmHg 24%
    07:00 +41°C° 0 mm 4 m/S 748 mmHg 20%
    08:00 +43°C° 0 mm 4 m/S 748 mmHg 15%
    09:00 +45°C° 0 mm 4 m/S 748 mmHg 11%
    10:00 +47°C° 0 mm 4 m/S 748 mmHg 10%
    11:00 +48°C° 0 mm 4 m/S 748 mmHg 10%
    12:00 +49°C° 0 mm 4 m/S 748 mmHg 9%
    13:00 +49°C° 0 mm 4 m/S 747 mmHg 10%
    14:00 +48°C° 0 mm 4 m/S 746 mmHg 12%
    15:00 +48°C° 0 mm 4 m/S 746 mmHg 13%
    16:00 +45°C° 0 mm 4 m/S 746 mmHg 15%
    17:00 +44°C° 0 mm 3 m/S 745 mmHg 16%
    18:00 +43°C° 0 mm 3 m/S 745 mmHg 18%
    19:00 +41°C° 0 mm 2 m/S 746 mmHg 19%
    20:00 +40°C° 0 mm 1 m/S 746 mmHg 20%
    21:00 +39°C° 0 mm 1 m/S 746 mmHg 21%
    22:00 +37°C° 0 mm 1 m/S 746 mmHg 20%
    23:00 +37°C° 0 mm 1 m/S 746 mmHg 20%

    29 Juni, Donnerstag

    Zeit Temperatur Niederschläge Wind Luftdruck Luftfeuchtigkeit
    00:00 +37°C° 0 mm 2 m/S 746 mmHg 19%
    01:00 +36°C° 0 mm 1 m/S 746 mmHg 22%
    02:00 +35°C° 0 mm 1 m/S 746 mmHg 25%
    03:00 +35°C° 0 mm 1 m/S 745 mmHg 28%
    04:00 +35°C° 0 mm 1 m/S 746 mmHg 27%
    05:00 +35°C° 0 mm 1 m/S 746 mmHg 26%
    06:00 +36°C° 0 mm 1 m/S 746 mmHg 26%
    07:00 +37°C° 0 mm 1 m/S 747 mmHg 23%
    08:00 +40°C° 0 mm 1 m/S 747 mmHg 20%
    09:00 +42°C° 0 mm 1 m/S 747 mmHg 17%
    10:00 +43°C° 0 mm 2 m/S 747 mmHg 16%
    11:00 +45°C° 0 mm 3 m/S 747 mmHg 15%
    12:00 +47°C° 0 mm 4 m/S 747 mmHg 13%
    13:00 +47°C° 0 mm 4 m/S 746 mmHg 14%
    14:00 +47°C° 0 mm 4 m/S 746 mmHg 15%
    15:00 +45°C° 0 mm 4 m/S 745 mmHg 16%
    16:00 +44°C° 0 mm 4 m/S 745 mmHg 18%
    17:00 +43°C° 0 mm 3 m/S 745 mmHg 20%
    18:00 +42°C° 0 mm 3 m/S 745 mmHg 22%
    19:00 +40°C° 0 mm 3 m/S 745 mmHg 24%
    20:00 +39°C° 0 mm 2 m/S 746 mmHg 26%
    21:00 +38°C° 0 mm 2 m/S 746 mmHg 28%
    22:00 +38°C° 0 mm 2 m/S 746 mmHg 28%
    23:00 +37°C° 0 mm 3 m/S 745 mmHg 29%

    30 Juni, Freitag

    Zeit Temperatur Niederschläge Wind Luftdruck Luftfeuchtigkeit
    00:00 +37°C° 0 mm 3 m/S 745 mmHg 30%
    01:00 +36°C° 0 mm 3 m/S 745 mmHg 32%
    02:00 +36°C° 0 mm 2 m/S 745 mmHg 35%
    03:00 +35°C° 0 mm 2 m/S 745 mmHg 37%
    04:00 +34°C° 0 mm 1 m/S 745 mmHg 35%
    05:00 +35°C° 0 mm 1 m/S 745 mmHg 34%
    06:00 +33°C° 0 mm 0 m/S 746 mmHg 32%
    07:00 +37°C° 0 mm 1 m/S 746 mmHg 28%
    08:00 +40°C° 0 mm 1 m/S 746 mmHg 24%
    09:00 +42°C° 0 mm 2 m/S 746 mmHg 20%
    10:00 +43°C° 0 mm 2 m/S 746 mmHg 18%
    11:00 +45°C° 0 mm 2 m/S 746 mmHg 17%
    12:00 +46°C° 0 mm 2 m/S 745 mmHg 16%
    13:00 +46°C° 0 mm 2 m/S 745 mmHg 16%
    14:00 +46°C° 0 mm 3 m/S 745 mmHg 17%
    15:00 +45°C° 0 mm 3 m/S 744 mmHg 17%
    16:00 +44°C° 0 mm 3 m/S 744 mmHg 21%
    17:00 +43°C° 0 mm 3 m/S 744 mmHg 25%
    18:00 +42°C° 0 mm 3 m/S 745 mmHg 28%
    19:00 +40°C° 0 mm 3 m/S 745 mmHg 30%
    20:00 +39°C° 0 mm 2 m/S 745 mmHg 33%
    21:00 +38°C° 0 mm 2 m/S 745 mmHg 35%
    22:00 +37°C° 0 mm 2 m/S 745 mmHg 35%
    23:00 +35°C° 0 mm 1 m/S 745 mmHg 36%

    1 Juli, Samstag

    Zeit Temperatur Niederschläge Wind Luftdruck Luftfeuchtigkeit
    00:00 +35°C° 0 mm 1 m/S 745 mmHg 36%
    01:00 +35°C° 0 mm 1 m/S 745 mmHg 37%
    02:00 +34°C° 0 mm 1 m/S 745 mmHg 37%
    03:00 +34°C° 0 mm 1 m/S 744 mmHg 37%
    04:00 +34°C° 0 mm 1 m/S 745 mmHg 35%
    05:00 +35°C° 0 mm 1 m/S 745 mmHg 34%
    06:00 +35°C° 0 mm 1 m/S 745 mmHg 32%
    07:00 +37°C° 0 mm 1 m/S 746 mmHg 29%
    08:00 +40°C° 0 mm 1 m/S 746 mmHg 25%
    09:00 +41°C° 0 mm 1 m/S 746 mmHg 22%
    10:00 +42°C° 0 mm 1 m/S 746 mmHg 20%
    11:00 +43°C° 0 mm 2 m/S 746 mmHg 19%
    12:00 +45°C° 0 mm 2 m/S 746 mmHg 18%
    13:00 +45°C° 0 mm 2 m/S 745 mmHg 18%
    14:00 +45°C° 0 mm 3 m/S 745 mmHg 17%
    15:00 +46°C° 0 mm 3 m/S 745 mmHg 17%
    16:00 +44°C° 0 mm 3 m/S 745 mmHg 19%
    17:00 +43°C° 0 mm 3 m/S 745 mmHg 22%
    18:00 +42°C° 0 mm 3 m/S 745 mmHg 24%
    19:00 +40°C° 0 mm 3 m/S 746 mmHg 26%
    20:00 +39°C° 0 mm 2 m/S 746 mmHg 28%
    21:00 +38°C° 0 mm 2 m/S 746 mmHg 30%
    22:00 +36°C° 0 mm 1 m/S 746 mmHg 30%
    23:00 +35°C° 0 mm 1 m/S 746 mmHg 31%
    Mehr zeigen